Stations météo

réclame
Mon MeteoGroup
Meierwik, Allemagne (10033): Température de l'air & dewpoint: 14.10.2018 19:00:00 - 20.10.2018 19:00:00 (CEST)Meierwik, Allemagne (10033): Vitesse du vent & gusts: 14.10.2018 19:00:00 - 20.10.2018 19:00:00 (CEST)Meierwik, Allemagne (10033): Direction du vent: 14.10.2018 19:00:00 - 20.10.2018 19:00:00 (CEST)Meierwik, Allemagne (10033): reduced air pressure: 14.10.2018 19:00:00 - 20.10.2018 19:00:00 (CEST)Meierwik, Allemagne (10033): visibility: 14.10.2018 19:00:00 - 20.10.2018 19:00:00 (CEST)
Date & Time tt [°C] td [°C] ff [km/h] ff [knt] fx [km/h] fx [knt] dd ppp [hPa] vv [km]
20.10.2018 19:00:00 11,0 7,7 18 10 - - NW 1028,2 30
20.10.2018 18:00:00 12,0 7,4 14 8 - - NW 1027,6 30
20.10.2018 17:00:00 12,9 6,7 25 14 - - NNW 1027,7 30
20.10.2018 16:00:00 13,7 7,5 29 16 - - NW 1027,8 30
20.10.2018 15:00:00 14,5 8,2 29 16 - - NNW 1027,4 30
20.10.2018 14:00:00 15,0 8,8 25 14 - - NW 1027,3 30
20.10.2018 13:00:00 13,5 8,7 22 12 - - NNW 1027,5 30
20.10.2018 12:00:00 13,5 9,9 22 12 - - NNW 1027,1 20
20.10.2018 11:00:00 12,8 10,4 18 10 - - W 1027,0 15
20.10.2018 10:00:00 11,6 9,7 22 12 - - W 1026,7 10
20.10.2018 09:00:00 10,7 9,2 22 12 - - W 1026,3 7
20.10.2018 08:00:00 10,1 9,0 18 10 - - SW 1026,0 7
20.10.2018 07:00:00 9,8 8,5 22 12 - - WSW 1025,9 5
20.10.2018 06:00:00 10,1 7,5 18 10 - - WSW 1025,6 20
20.10.2018 05:00:00 10,2 5,4 25 14 - - WSW 1025,2 20
20.10.2018 04:00:00 9,5 5,1 25 14 - - SW 1025,4 20
20.10.2018 03:00:00 9,7 5,2 18 10 - - SW 1025,7 20
20.10.2018 02:00:00 9,5 5,2 14 8 - - SSW 1025,8 18
20.10.2018 01:00:00 9,4 5,4 18 10 - - SW 1026,0 18
20.10.2018 00:00:00 8,2 4,2 14 8 - - SW 1026,1 18
19.10.2018 23:00:00 9,6 5,2 7 4 - - W 1026,1 20
19.10.2018 22:00:00 10,3 4,7 18 10 - - WNW 1026,2 20
19.10.2018 21:00:00 10,6 5,5 18 10 - - WNW 1026,1 25
19.10.2018 20:00:00 9,5 6,5 11 6 - - W 1025,8 25
19.10.2018 19:00:00 11,3 5,3 14 8 - - NW 1025,5 25
19.10.2018 18:00:00 11,9 5,8 14 8 - - NW 1025,2 -
19.10.2018 17:00:00 12,3 5,8 11 6 - - W 1025,3 -
19.10.2018 16:00:00 12,5 5,2 7 4 - - NW 1025,4 -
19.10.2018 15:00:00 13,5 4,7 11 6 - - NNW 1026,0 -
19.10.2018 14:00:00 12,4 3,9 14 8 - - NW 1026,4 -
19.10.2018 13:00:00 12,3 4,5 11 6 - - W 1026,6 -
19.10.2018 12:00:00 11,9 6,1 7 4 - - WNW 1026,8 -
19.10.2018 11:00:00 9,4 5,8 7 4 - - W 1026,8 -
19.10.2018 10:00:00 6,2 5,8 7 4 - - WSW 1026,7 -
19.10.2018 09:00:00 4,0 3,6 7 4 - - W 1026,7 -
19.10.2018 08:00:00 3,9 3,5 7 4 - - W 1026,6 -
19.10.2018 07:00:00 4,4 3,9 7 4 - - WNW 1026,3 -
19.10.2018 06:00:00 5,5 5,1 7 4 - - W 1026,2 15
19.10.2018 05:00:00 5,2 4,6 7 4 - - NW 1026,4 20
19.10.2018 04:00:00 6,2 5,5 7 4 - - NNW 1026,3 20
19.10.2018 03:00:00 5,9 5,3 4 2 - - N 1026,5 20
19.10.2018 02:00:00 5,3 4,6 7 4 - - WSW 1026,8 20
19.10.2018 01:00:00 6,0 5,2 7 4 - - NW 1026,9 20
19.10.2018 00:00:00 6,8 5,4 11 6 - - N 1026,9 25
18.10.2018 23:00:00 7,4 5,4 18 10 - - N 1026,8 25
18.10.2018 22:00:00 8,0 5,5 18 10 - - N 1026,6 25
18.10.2018 21:00:00 8,6 5,6 18 10 - - NNW 1026,0 25
18.10.2018 20:00:00 9,2 5,8 18 10 - - N 1025,7 25
18.10.2018 19:00:00 9,3 5,9 14 8 - - NNW 1025,3 30
18.10.2018 18:00:00 12,6 4,7 14 8 - - N 1024,8 30
18.10.2018 17:00:00 13,6 3,7 18 10 - - N 1024,4 35
18.10.2018 16:00:00 14,0 5,2 18 10 - - NNW 1024,5 35
18.10.2018 15:00:00 13,8 6,6 18 10 - - N 1024,4 30
18.10.2018 14:00:00 14,9 7,2 22 12 - - NNE 1024,3 30
18.10.2018 13:00:00 14,4 7,5 29 16 - - N 1024,5 30
18.10.2018 12:00:00 13,8 7,3 29 16 - - NNE 1024,3 30
18.10.2018 11:00:00 13,1 8,1 29 16 - - NNE 1023,9 25
18.10.2018 10:00:00 12,1 8,0 25 14 - - N 1023,3 18
18.10.2018 09:00:00 12,7 10,4 22 12 - - N 1022,3 3,5
18.10.2018 08:00:00 13,1 12,1 26 14 - - N 1021,5 3,5
18.10.2018 07:00:00 12,8 12,0 7 4 - - NW 1020,9 2,5
18.10.2018 06:00:00 12,6 11,8 9 5 - - NNW 1020,8 3,0
18.10.2018 05:00:00 12,6 12,1 9 5 - - NNW 1020,6 3,8
18.10.2018 04:00:00 12,7 12,2 14 8 - - NNW 1020,3 0,4
18.10.2018 03:00:00 12,9 12,4 18 10 - - NW 1020,4 0,2
18.10.2018 02:00:00 11,3 10,8 14 8 - - WNW 1020,4 2,8
18.10.2018 01:00:00 11,3 10,6 11 6 - - W 1020,3 4,0
18.10.2018 00:00:00 11,8 11,0 11 6 - - WNW 1020,3 4,5
17.10.2018 23:00:00 13,6 12,3 11 6 - - WNW 1020,2 4,5
17.10.2018 22:00:00 14,1 12,8 18 10 - - WNW 1020,0 4,5
17.10.2018 21:00:00 14,3 13,5 21 11 - - WNW 1019,6 3,8
17.10.2018 20:00:00 13,3 12,4 14 8 - - W 1019,2 4,0
17.10.2018 19:00:00 14,3 12,7 14 8 - - W 1018,8 5
17.10.2018 18:00:00 16,6 12,7 11 6 - - W 1018,5 8
17.10.2018 17:00:00 17,3 13,1 14 8 - - W 1018,4 8
17.10.2018 16:00:00 18,0 13,5 18 10 - - W 1018,2 9
17.10.2018 15:00:00 20,5 12,9 11 6 - - W 1018,1 9
17.10.2018 14:00:00 20,7 12,5 18 10 - - SW 1018,0 9
17.10.2018 13:00:00 20,1 12,3 11 6 - - SW 1018,2 7
17.10.2018 12:00:00 18,2 13,1 11 6 - - SSW 1018,4 5
17.10.2018 11:00:00 16,3 13,6 7 4 - - WSW 1018,6 4,8
17.10.2018 10:00:00 13,8 13,3 14 8 - - S 1018,3 4,5
17.10.2018 09:00:00 11,1 10,9 4 2 - - N 1018,5 4,3
17.10.2018 08:00:00 11,1 10,8 4 2 - - N 1018,1 4,3
17.10.2018 07:00:00 11,2 10,7 7 4 - - S 1017,8 5
17.10.2018 06:00:00 11,3 10,8 7 4 - - S 1017,9 5
17.10.2018 05:00:00 11,7 11,2 7 4 - - S 1017,8 5
17.10.2018 04:00:00 11,1 10,5 7 4 - - SSW 1018,0 5
17.10.2018 03:00:00 10,6 10,1 7 4 - - S 1018,3 5
17.10.2018 02:00:00 10,7 10,2 4 2 - - S 1018,5 6
17.10.2018 01:00:00 11,2 10,7 4 2 - - N 1018,4 6
17.10.2018 00:00:00 12,3 11,8 11 6 - - S 1018,5 6
16.10.2018 23:00:00 13,0 12,4 11 6 - - S 1018,8 6
16.10.2018 22:00:00 11,9 11,3 11 6 - - S 1018,9 6
16.10.2018 21:00:00 12,6 12,0 7 4 - - SSW 1019,1 6
16.10.2018 20:00:00 12,9 12,2 11 6 - - WSW 1019,0 6
16.10.2018 19:00:00 14,3 13,1 14 8 - - W 1018,7 5
16.10.2018 18:00:00 15,6 13,4 14 8 - - W 1018,2 7
16.10.2018 17:00:00 16,9 13,1 18 10 - - W 1018,2 7
16.10.2018 16:00:00 17,2 14,0 14 8 - - W 1018,1 6
16.10.2018 15:00:00 17,2 13,8 22 12 - - W 1017,8 6
16.10.2018 14:00:00 17,3 13,6 14 8 - - WSW 1017,5 5
16.10.2018 13:00:00 17,4 14,0 11 6 - - SW 1017,6 4,0
16.10.2018 12:00:00 16,7 13,8 7 4 - - SW 1017,5 4,0
16.10.2018 11:00:00 15,3 13,0 7 4 - - WSW 1017,3 4,0
16.10.2018 10:00:00 14,9 12,7 4 2 - - N 1017,1 4,0
16.10.2018 09:00:00 12,6 11,7 11 6 - - SW 1016,7 4,5
16.10.2018 08:00:00 11,7 11,0 11 6 - - WSW 1016,3 4,5
16.10.2018 07:00:00 12,1 11,4 11 6 - - WSW 1015,7 -
16.10.2018 06:00:00 11,8 10,9 7 4 - - SW 1015,1 -
16.10.2018 05:00:00 12,9 11,8 7 4 - - SSW 1015,2 -
16.10.2018 04:00:00 12,9 11,8 7 4 - - SW 1015,3 -
16.10.2018 03:00:00 12,8 12,2 7 4 - - SW 1015,0 -
16.10.2018 02:00:00 13,1 12,3 7 4 - - WSW 1014,8 -
16.10.2018 01:00:00 13,0 12,4 4 2 - - SW 1014,7 -
16.10.2018 00:00:00 12,5 11,9 7 4 - - SSW 1014,7 -
15.10.2018 23:00:00 12,0 11,2 4 2 - - ESE 1014,4 -
15.10.2018 22:00:00 12,4 11,6 4 2 - - N 1014,3 -
15.10.2018 21:00:00 12,8 11,8 0 0 - - N 1014,0 -
15.10.2018 20:00:00 13,7 12,3 4 2 - - WNW 1013,8 -
15.10.2018 19:00:00 14,5 12,9 7 4 - - SW 1013,4 -
15.10.2018 18:00:00 17,7 13,6 11 6 - - SSW 1012,8 10
15.10.2018 17:00:00 20,0 12,4 7 4 - - SW 1012,6 15
15.10.2018 16:00:00 21,0 11,9 11 6 - - SSW 1012,3 15
15.10.2018 15:00:00 19,2 13,3 4 2 - - W 1012,1 15
15.10.2018 14:00:00 20,7 13,0 7 4 - - S 1012,1 15
15.10.2018 13:00:00 20,6 10,8 7 4 - - S 1012,4 15
15.10.2018 12:00:00 19,3 11,9 7 4 - - SSE 1012,5 15
15.10.2018 11:00:00 15,7 11,8 4 2 - - N 1012,4 15
15.10.2018 10:00:00 13,1 11,0 11 6 - - SSE 1012,1 15
15.10.2018 09:00:00 10,7 9,7 4 2 - - N 1011,9 15
15.10.2018 08:00:00 10,3 9,1 7 4 - - S 1011,6 20
15.10.2018 07:00:00 10,5 9,3 7 4 - - S 1011,2 20
15.10.2018 06:00:00 11,5 9,2 7 4 - - N 1011,0 15
15.10.2018 05:00:00 13,8 9,7 7 4 - - S 1011,0 15
15.10.2018 04:00:00 15,9 9,3 4 2 - - SW 1010,8 15
15.10.2018 03:00:00 16,7 9,4 22 12 - - S 1010,7 18
15.10.2018 02:00:00 16,7 9,3 29 16 - - S 1010,5 20
15.10.2018 01:00:00 16,7 9,4 29 16 - - S 1010,4 20
15.10.2018 00:00:00 16,8 9,7 29 16 - - S 1010,3 20
14.10.2018 23:00:00 17,5 9,8 25 14 - - S 1010,3 20
14.10.2018 22:00:00 17,9 10,0 29 16 47 25 S 1010,2 20
14.10.2018 21:00:00 18,2 10,2 29 16 - - S 1009,9 20
14.10.2018 20:00:00 18,4 10,3 25 14 - - S 1009,6 20
14.10.2018 19:00:00 18,7 10,8 22 12 - - SSE 1009,5 20

tt = Température de l'air
td = dewpoint
ff = Vitesse du vent
fx = gusts
dd = Direction du vent
ppp = reduced air pressure
vv = visibility

stations d'obs. à proximité